Location: Arborea
(39.7744°N, 8.5819°E)
Time: 01:09:15
(UTC+00:00)

Cosmos 1934 Rocket - Pass Details

Date: 24 October 2021
Orbit: 938 x 998 km, 83.0° (Epoch: 06 December)

Event Time Altitude Azimuth Distance (km) Brightness Sun altitude
Rises 17:23:20 0° 182° (S) 3,617 7.1 -10.2°
Reaches altitude 10° 17:25:49 10° 182° (S) 2,668 6.4 -10.7°
Maximum altitude 17:31:55 83° 95° (E) 956 3.9 -11.9°
Drops below altitude 10° 17:37:59 10° 9° (N) 2,662 6.2 -13.0°
Sets 17:40:28 0° 9° (N) 3,608 6.8 -13.5°
